This demonstration page uses our WeatherBlox Daily Observations layout. Learn more.

Left ArrowRight Arrow

Hourly Observations for August 30, 2020

Temp ( °F °C ) Dew Point ( °F °C ) Humidity (%) Winds ( mph kmh ) Pressure ( in mb ) Visibility ( mi km ) Precip ( " mm )
12:53 am 00:53 Clear 66 18.9 50 10 56 56 SSE 7 11 29.89 1012 10 16 0.00 0.00
1:53 am 01:53 Clear 65 18.3 50 10 59 59 SSE 9 15 29.88 1012 10 16 0.00 0.00
2:53 am 02:53 Clear 65 18.3 49 9.4 56 56 SE 14 22 29.84 1011 10 16 0.00 0.00
3:53 am 03:53 Clear 63 17.2 50 10 63 63 SE 7 11 29.84 1011 10 16 0.00 0.00
4:53 am 04:53 Clear 62 16.7 51 10.6 67 67 SSE 7 11 29.83 1010 10 16 0.00 0.00
5:53 am 05:53 Clear 62 16.7 52 11.1 70 70 SSE 9 15 29.83 1010 10 16 0.00 0.00
6:53 am 06:53 Clear 60 15.6 53 11.7 78 78 S 6 9 29.83 1010 10 16 0.00 0.00
7:53 am 07:53 Sunny 61 16.1 54 12.2 78 78 SSW 5 7 29.84 1011 10 16 0.00 0.00
8:53 am 08:53 Sunny 65 18.3 58 14.4 78 78 S 10 17 29.81 1010 10 16 0.00 0.00
9:53 am 09:53 Sunny 71 21.7 61 16.1 71 71 undefined N/A 29.79 1009 10 16 0.00 0.00
10:53 am 10:53 Sunny 75 23.9 60 15.6 60 60 S 12 19 29.78 1008 10 16 0.00 0.00
11:53 am 11:53 Mostly Cloudy 77 25 62 16.7 60 60 S 10 17 29.75 1008 10 16 0.00 0.00
12:53 pm 12:53 Cloudy 76 24.4 62 16.7 62 62 SSW 14 22 29.73 1007 10 16 0.00 0.00
1:53 pm 13:53 Cloudy 76 24.4 63 17.2 64 64 SSW 13 20 29.71 1006 10 16 0.00 0.00
2:53 pm 14:53 Cloudy 78 25.6 64 17.8 62 62 S 13 20 29.68 1005 10 16 0.00 0.00
3:00 pm 15:00 Cloudy 78 25.6 64 17.8 62 62 S 14 22 29.63 1003 10 16 0.00 0.00
3:10 pm 15:10 Cloudy 78 25.6 64 17.8 62 62 S 13 20 29.62 1003 9 14 0.00 0.00
3:53 pm 15:53 Mostly Cloudy 81 27.2 65 18.3 58 58 S 16 26 29.65 1004 10 16 0.00 0.00
4:53 pm 16:53 Mostly Cloudy 80 26.7 65 18.3 60 60 S 14 22 29.63 1003 10 16 0.00 0.00
5:43 pm 17:43 Partly Cloudy 79 26.1 65 18.3 62 62 S 14 22 29.57 1001 10 16 0.00 0.00
5:53 pm 17:53 Mostly Sunny 79 26.1 65 18.3 62 62 S 14 22 29.62 1003 10 16 0.00 0.00
6:53 pm 18:53 Sunny 78 25.6 65 18.3 64 64 S 12 19 29.61 1003 10 16 0.00 0.00
7:53 pm 19:53 Sunny 76 24.4 65 18.3 69 69 S 10 17 29.60 1003 10 16 0.00 0.00
8:53 pm 20:53 Clear 73 22.8 65 18.3 76 76 S 9 15 29.62 1003 10 16 0.00 0.00
9:53 pm 21:53 Clear 73 22.8 65 18.3 76 76 SSE 10 17 29.62 1003 10 16 0.00 0.00
10:53 pm 22:53 Clear 71 21.7 65 18.3 81 81 SSE 12 19 29.63 1003 10 16 0.00 0.00
11:53 pm 23:53 Clear 70 21.1 64 17.8 82 82 ESE 8 13 29.63 1003 10 16 0.00 0.00

Powered by AerisWeather